Location: Unspecified
(42.3650°N, 71.1030°W)
Time: 16:48:21
(UTC+00:00)

S-56A Canister/Altair - Pass Details

Date: 01 July 2024
Orbit: 638 x 2487 km, 38.9° (Epoch: 20 July)

Event Time Altitude Azimuth Distance (km) Brightness Sun altitude
Rises 02:52:47 0° 276° (W) 4,109 11.7 -19.3°
Reaches altitude 10° 02:55:14 10° 273° (W) 3,352 11.2 -19.5°
Maximum altitude 03:03:51 63° 195° (SSW) 1,918 9.2 -20.3°
Enters shadow 03:13:46 18° 122° (ESE) 4,027 10.7 -21.0°
